[[{"header":{"parameterUnit":"m.s-1","parameterCategory":2,"la1":30.2991,"la2":30.254,"lo1":-89.0895,"lo2":-89.0444,"dy":0.0017,"dx":0.0017,"nx":28,"ny":28,"refTime":"2025-07-21T21:00:00:Z","depth":"0","parameterNumber":2,"parameterNumberName":"U-component_of_CURRENTS"},"data":[0,0,0,0,0,0,0,0,0,0,0,0,0,0,0,0,0,0,0,0,0,0,0,0,0,0,0,0,0,0,0,0,0,0,0,0,0,0,0,0,0,0,0,0,0,0,0,0,0,0,0,0,0,0,0,0,0,0,-0.2305,-0.2305,0,-0.2339,-0.234,-0.234,-0.2323,-0.2322,-0.2321,-0.232,-0.2333,-0.2334,-0.2335,0,0,0,0,0,0,0,0,0,0,0,0,0,-0.2269,-0.227,-0.2305,-0.2305,-0.2305,-0.2339,-0.234,-0.2341,-0.2323,-0.2322,-0.2321,-0.232,-0.2332,-0.2334,-0.2335,0,0,0,0,0,0,0,0,0,0,0,0,0,-0.2294,-0.227,-0.2305,-0.23,-0.23,-0.2339,-0.234,-0.2341,-0.2324,-0.2322,-0.232,-0.2319,-0.2332,-0.2334,-0.2336,-0.2379,0,0,-0.2342,-0.2343,0,0,0,0,0,0,0,0,-0.2292,-0.2295,-0.23,-0.23,-0.23,-0.2324,-0.2332,-0.2352,-0.2324,-0.2316,-0.232,-0.2318,-0.2328,-0.233,-0.2343,-0.238,-0.238,-0.2342,-0.2343,-0.2344,-0.2344,0,0,0,0,0,0,0,-0.229,-0.2294,-0.232,-0.2301,-0.23,-0.2311,-0.2313,-0.2336,-0.2331,-0.2317,-0.2315,-0.2317,-0.2328,-0.2341,-0.2343,-0.238,-0.2342,-0.2344,-0.2345,-0.2346,-0.2445,-0.2446,0,0,0,0,0,0,-0.2283,-0.2292,-0.2319,-0.2321,-0.229,-0.2313,-0.2315,-0.2319,-0.2331,-0.2331,-0.2318,-0.2316,-0.2338,-0.234,-0.2343,-0.2381,-0.2344,-0.2346,-0.2347,-0.2444,-0.2445,-0.2447,0,0,0,0,0,0,-0.2282,-0.2285,-0.2317,-0.2306,-0.231,-0.2315,-0.232,-0.2321,-0.2327,-0.2333,-0.2332,-0.2323,-0.2337,-0.234,-0.2374,-0.2382,-0.2347,-0.2348,-0.2442,-0.2444,-0.2446,-0.2466,0,0,0,0,0,0,-0.2281,-0.2285,-0.2283,-0.2305,-0.2311,-0.2345,-0.2322,-0.2322,-0.233,-0.2327,-0.2337,-0.2336,-0.2336,-0.2372,-0.2376,-0.2384,-0.235,-0.244,-0.2443,-0.2445,-0.2463,-0.2469,-0.2473,0,0,0,0,0,-0.228,-0.2287,-0.2282,-0.2285,-0.2309,-0.2346,-0.2351,-0.2349,-0.2332,-0.2347,-0.2356,-0.2336,-0.2392,-0.2375,-0.238,-0.2388,-0.2439,-0.2442,-0.2445,-0.2461,-0.2468,-0.2473,0,0,0,0,0,0,-0.227,-0.2286,-0.2282,-0.2292,-0.2318,-0.2343,-0.235,-0.2353,-0.2373,-0.2365,-0.2364,-0.2367,-0.2399,-0.24,-0.2381,-0.2427,-0.2409,-0.2413,-0.2419,-0.2425,-0.243,-0.2421,-0.2352,0,0,0,0,0,-0.2267,-0.2271,-0.2299,-0.2305,-0.2319,-0.2335,-0.2346,-0.2353,-0.2373,-0.2379,-0.2384,-0.2395,-0.2421,-0.2426,-0.245,-0.2479,-0.247,-0.2486,-0.2491,-0.2494,-0.2493,-0.2493,-0.2496,-0.2458,-0.2458,-0.2458,0,0,-0.2259,-0.2271,-0.227,-0.2302,-0.2317,-0.2342,-0.2338,-0.2363,-0.2379,-0.2379,-0.2398,-0.2418,-0.2437,-0.247,-0.2482,-0.2465,-0.2504,-0.2498,-0.2501,-0.2497,-0.2496,-0.25,-0.2503,-0.246,-0.246,-0.2459,0,0,-0.2252,-0.2265,-0.2266,-0.2295,-0.2324,-0.2347,-0.2354,-0.2385,-0.2394,-0.2433,-0.2432,-0.2464,-0.2493,-0.251,-0.2522,-0.2572,-0.2537,-0.2567,-0.2573,-0.2574,-0.2576,-0.2578,-0.2578,-0.258,-0.2559,-0.2559,-0.2559,0,-0.224,-0.2245,-0.2275,-0.2295,-0.231,-0.2347,-0.2363,-0.2394,-0.2429,-0.2441,-0.2441,-0.2497,-0.2517,-0.2552,-0.2569,-0.2581,-0.2566,-0.2546,-0.2577,-0.2579,-0.2581,-0.258,-0.2582,-0.2561,-0.2561,-0.256,-0.256,0,-0.2231,-0.2245,-0.2255,-0.2285,-0.2318,-0.2341,-0.239,-0.2419,-0.2437,-0.2461,-0.2506,-0.2544,-0.2569,-0.2585,-0.2593,-0.2615,-0.2596,-0.2588,-0.2555,-0.2585,-0.2584,-0.2585,-0.2563,-0.2562,-0.2562,-0.2561,0,0,-0.2177,-0.2233,-0.2232,-0.2247,-0.2312,-0.2338,-0.2385,-0.2432,-0.2443,-0.2499,-0.2512,-0.2584,-0.2594,-0.261,-0.2622,-0.2627,-0.2641,-0.2605,-0.2604,-0.2592,-0.2628,-0.2473,-0.246,-0.262,-0.262,-0.2621,-0.2623,0,-0.2153,-0.2166,-0.2214,-0.2243,-0.2258,-0.2327,-0.2363,-0.2418,-0.2456,-0.2485,-0.2545,-0.2567,-0.2605,-0.2604,-0.2628,-0.2641,-0.2643,-0.264,-0.2612,-0.2611,-0.2459,-0.2456,-0.223,-0.2199,-0.2624,-0.2625,-0.2625,0,-0.2123,-0.2134,-0.2144,-0.2211,-0.2226,-0.2258,-0.2314,-0.2356,-0.2426,-0.2454,-0.2504,-0.2533,-0.2588,-0.2592,-0.2645,-0.2632,-0.2631,-0.2637,-0.2637,-0.2482,-0.2458,-0.2239,-0.2185,-0.2127,-0.2627,-0.2626,-0.2626,0,-0.2043,-0.2094,-0.2092,-0.2113,-0.2192,-0.2216,-0.2263,-0.2334,-0.2364,-0.2418,-0.2433,-0.2505,-0.2534,-0.2561,-0.2616,-0.261,-0.265,-0.2643,-0.2508,-0.2498,-0.2295,-0.2264,-0.2165,-0.265,-0.265,-0.265,-0.265,0,-0.2,-0.2009,-0.2052,-0.2052,-0.2066,-0.2151,-0.2173,-0.223,-0.2295,-0.2332,-0.2401,-0.2432,-0.2521,-0.2567,-0.2599,-0.2564,-0.2645,-0.2498,-0.2478,-0.2296,-0.2267,-0.2198,-0.2277,-0.265,-0.265,-0.265,-0.265,0,-0.1941,-0.196,-0.197,-0.2019,-0.203,-0.2046,-0.2121,-0.2138,-0.2208,-0.2254,-0.2267,-0.2377,-0.2429,-0.2506,-0.2556,-0.2518,-0.2441,-0.2475,-0.2255,-0.2205,-0.1953,-0.2043,-0.2011,-0.1966,-0.2283,-0.2279,-0.2276,0,-0.1916,-0.1902,-0.1918,-0.1916,-0.1942,-0.1969,-0.1985,-0.2074,-0.2109,-0.2225,-0.2246,-0.2307,-0.2345,-0.2361,-0.2288,-0.2261,-0.2332,-0.2023,-0.1955,-0.1886,-0.1976,-0.207,-0.2044,-0.1716,-0.1708,-0.1702,-0.1697,0,-0.1872,-0.1869,-0.1869,-0.1836,-0.1844,-0.1869,-0.1912,-0.1931,-0.205,-0.209,-0.2166,-0.2192,-0.2164,-0.201,-0.194,-0.1911,-0.1918,-0.1885,-0.1871,-0.1557,-0.1601,-0.1562,-0.1797,-0.1641,-0.1647,-0.1651,-0.1654,-0.1656,-0.183,-0.1812,-0.1782,-0.177,-0.177,-0.1783,-0.1773,-0.1839,-0.1882,-0.1919,-0.2028,-0.195,-0.1761,-0.1597,-0.157,-0.1293,-0.1531,-0.1197,-0.1327,-0.144,-0.1334,-0.1435,-0.1217,-0.122,-0.1223,-0.1225,-0.1227,0,-0.1763,-0.1745,-0.172,-0.1697,-0.1674,-0.1698,-0.1726,-0.1694,-0.1715,-0.168,-0.1701,-0.1414,-0.1218,-0.107,-0.0786,-0.0726,-0.0762,-0.076,-0.0841,-0.0854,-0.0938,-0.084,-0.0458,-0.0458,-0.0458,-0.0458,-0.0459,-0.0459,-0.1719,-0.1669,-0.1658,-0.1601,-0.1588,-0.1497,-0.1491,-0.1455,-0.1379,-0.1186,-0.0967,-0.0859,-0.0694,-0.0671,-0.0507,-0.0469,-0.0562,-0.0536,-0.0711,-0.0748,-0.0799,-0.0848,-0.0765,-0.0375,-0.0375,-0.0472,-0.0473,-0.0474]},{"header":{"parameterUnit":"m.s-1","parameterCategory":2,"la1":30.2991,"la2":30.254,"lo1":-89.0895,"lo2":-89.0444,"dy":0.0017,"dx":0.0017,"nx":28,"ny":28,"refTime":"2025-07-21T21:00:00:Z","depth":"0","parameterNumber":3,"parameterNumberName":"V-component_of_CURRENTS"},"data":[0,0,0,0,0,0,0,0,0,0,0,0,0,0,0,0,0,0,0,0,0,0,0,0,0,0,0,0,0,0,0,0,0,0,0,0,0,0,0,0,0,0,0,0,0,0,0,0,0,0,0,0,0,0,0,0,0,0,-0.0993,-0.0994,0,-0.0978,-0.0977,-0.0977,-0.0935,-0.0935,-0.0934,-0.0934,-0.0837,-0.0835,-0.0833,0,0,0,0,0,0,0,0,0,0,0,0,0,-0.0912,-0.0914,-0.0993,-0.0994,-0.0994,-0.0978,-0.0977,-0.0977,-0.0935,-0.0935,-0.0934,-0.0933,-0.0838,-0.0835,-0.0833,0,0,0,0,0,0,0,0,0,0,0,0,0,-0.0923,-0.0914,-0.0993,-0.0975,-0.0973,-0.0978,-0.0977,-0.0976,-0.0935,-0.0935,-0.0934,-0.0933,-0.0838,-0.0835,-0.0832,-0.0826,0,0,-0.0822,-0.0821,0,0,0,0,0,0,0,0,-0.0922,-0.0925,-0.0977,-0.0976,-0.0974,-0.0962,-0.0913,-0.0924,-0.0935,-0.0945,-0.0934,-0.0933,-0.0875,-0.0868,-0.0862,-0.0822,-0.0818,-0.0822,-0.082,-0.0819,-0.0818,0,0,0,0,0,0,0,-0.0922,-0.0925,-0.0982,-0.0978,-0.0976,-0.0942,-0.0942,-0.0915,-0.0909,-0.0944,-0.0942,-0.0948,-0.0872,-0.0865,-0.0859,-0.0816,-0.0822,-0.0819,-0.0817,-0.0816,-0.0782,-0.0783,0,0,0,0,0,0,-0.0938,-0.0925,-0.0983,-0.0983,-0.0951,-0.0944,-0.0945,-0.0963,-0.0911,-0.0904,-0.0948,-0.0946,-0.0871,-0.0863,-0.0855,-0.0876,-0.0819,-0.0816,-0.0814,-0.0781,-0.0782,-0.0783,0,0,0,0,0,0,-0.0937,-0.0944,-0.0984,-0.0956,-0.0959,-0.0947,-0.0967,-0.0963,-0.0957,-0.0916,-0.0907,-0.0947,-0.087,-0.086,-0.0843,-0.087,-0.0814,-0.0811,-0.078,-0.0781,-0.0783,-0.0897,0,0,0,0,0,0,-0.0935,-0.0944,-0.0958,-0.0958,-0.0962,-0.1006,-0.0968,-0.0963,-0.0964,-0.096,-0.0912,-0.0902,-0.0869,-0.0848,-0.084,-0.0865,-0.0809,-0.0778,-0.078,-0.0782,-0.0892,-0.0902,-0.0911,0,0,0,0,0,-0.0932,-0.097,-0.0959,-0.0966,-0.0984,-0.1008,-0.1006,-0.0991,-0.0965,-0.0978,-0.094,-0.0904,-0.0854,-0.0846,-0.0836,-0.0861,-0.0778,-0.078,-0.0782,-0.0887,-0.09,-0.091,0,0,0,0,0,0,-0.094,-0.097,-0.0958,-0.1001,-0.1008,-0.1003,-0.1016,-0.0997,-0.0977,-0.0967,-0.0915,-0.0905,-0.0901,-0.0863,-0.0856,-0.0856,-0.081,-0.0811,-0.0894,-0.0905,-0.0914,-0.0967,-0.0806,0,0,0,0,0,-0.095,-0.0988,-0.0997,-0.103,-0.1037,-0.1022,-0.1026,-0.1016,-0.1003,-0.0993,-0.0961,-0.0925,-0.0904,-0.089,-0.0865,-0.0863,-0.0845,-0.0871,-0.0881,-0.0889,-0.0925,-0.0948,-0.0964,-0.0791,-0.0791,-0.0791,0,0,-0.0963,-0.0983,-0.1003,-0.1034,-0.1034,-0.1071,-0.1022,-0.1041,-0.1069,-0.0985,-0.1004,-0.0957,-0.091,-0.0914,-0.0909,-0.0885,-0.0918,-0.0892,-0.09,-0.0932,-0.0952,-0.0969,-0.0985,-0.0792,-0.0792,-0.0792,0,0,-0.102,-0.1024,-0.1077,-0.1091,-0.1108,-0.1105,-0.1115,-0.1113,-0.1109,-0.1117,-0.1066,-0.1047,-0.1006,-0.0993,-0.0975,-0.1022,-0.097,-0.0997,-0.1088,-0.1109,-0.1125,-0.1138,-0.1095,-0.1104,-0.1,-0.1001,-0.1001,0,-0.1023,-0.1102,-0.1093,-0.1144,-0.1171,-0.1129,-0.1188,-0.1182,-0.1174,-0.1184,-0.1141,-0.1115,-0.1057,-0.1086,-0.1089,-0.1049,-0.1029,-0.1049,-0.1125,-0.1139,-0.1151,-0.1104,-0.1112,-0.1006,-0.1006,-0.1005,-0.1004,0,-0.1126,-0.118,-0.1212,-0.1268,-0.1291,-0.1333,-0.1332,-0.1344,-0.1321,-0.1314,-0.1332,-0.1268,-0.1256,-0.1225,-0.1163,-0.1217,-0.1161,-0.1138,-0.1104,-0.1176,-0.112,-0.1127,-0.1015,-0.1012,-0.1011,-0.1009,0,0,-0.1114,-0.1264,-0.1269,-0.1328,-0.1362,-0.1397,-0.1444,-0.1486,-0.1521,-0.1498,-0.1556,-0.1499,-0.1455,-0.1433,-0.1361,-0.1366,-0.1388,-0.1287,-0.1285,-0.1258,-0.1394,-0.1201,-0.1189,-0.1381,-0.1384,-0.1387,-0.1306,0,-0.1182,-0.136,-0.1392,-0.1508,-0.1582,-0.1572,-0.1621,-0.1643,-0.1638,-0.1674,-0.163,-0.164,-0.1537,-0.1522,-0.1519,-0.1426,-0.1419,-0.141,-0.1318,-0.1315,-0.1148,-0.1196,-0.1038,-0.0942,-0.1312,-0.1313,-0.1314,0,-0.124,-0.1357,-0.1539,-0.1655,-0.1681,-0.1736,-0.181,-0.1845,-0.1869,-0.1866,-0.1878,-0.1826,-0.1819,-0.1725,-0.1651,-0.1647,-0.1538,-0.1464,-0.1459,-0.1257,-0.1137,-0.0937,-0.0939,-0.0723,-0.1324,-0.1323,-0.1322,0,-0.1263,-0.1427,-0.16,-0.1642,-0.1774,-0.183,-0.1872,-0.1907,-0.1932,-0.1989,-0.2,-0.2003,-0.1965,-0.1903,-0.1702,-0.1691,-0.1607,-0.1571,-0.1303,-0.1285,-0.1123,-0.1086,-0.0924,-0.1549,-0.1549,-0.155,-0.155,0,-0.132,-0.141,-0.1631,-0.1717,-0.1846,-0.1897,-0.1991,-0.2029,-0.2071,-0.2096,-0.2093,-0.2094,-0.2008,-0.192,-0.1779,-0.1537,-0.1662,-0.1334,-0.1271,-0.1147,-0.1115,-0.0894,-0.0857,-0.1546,-0.1547,-0.1548,-0.1548,0,-0.1286,-0.1453,-0.1611,-0.1814,-0.1871,-0.1944,-0.2042,-0.2089,-0.2131,-0.2167,-0.2184,-0.2158,-0.204,-0.1911,-0.1766,-0.1576,-0.1256,-0.1295,-0.1113,-0.1029,-0.0558,-0.0534,-0.0386,-0.0263,-0.1007,-0.1002,-0.0998,0,-0.1286,-0.1395,-0.1673,-0.1756,-0.1842,-0.1958,-0.2025,-0.2111,-0.2138,-0.2173,-0.2179,-0.2106,-0.2003,-0.1718,-0.1429,-0.1165,-0.1061,-0.0823,-0.0777,-0.0515,-0.0445,-0.0457,-0.0368,-0.0592,-0.0585,-0.0579,-0.0575,0,-0.1229,-0.1355,-0.1518,-0.1724,-0.184,-0.1965,-0.206,-0.2091,-0.2153,-0.2166,-0.2135,-0.2072,-0.1775,-0.1403,-0.103,-0.0851,-0.0635,-0.0687,-0.05,-0.0179,-0.0108,0.0039,-0.0625,-0.0522,-0.0528,-0.0531,-0.0534,-0.0536,-0.1143,-0.1243,-0.1487,-0.1637,-0.1796,-0.1924,-0.1945,-0.2013,-0.2042,-0.1971,-0.2011,-0.1804,-0.1309,-0.0765,-0.0592,-0.0037,-0.0209,0.0158,0.0147,0.0098,0.0268,-0.0235,-0.0007,-0.0009,-0.0011,-0.0012,-0.0014,0,-0.1031,-0.1182,-0.1354,-0.1577,-0.1698,-0.1818,-0.1923,-0.1876,-0.1836,-0.175,-0.1669,-0.1134,-0.0597,-0.0161,0.0539,0.0798,0.0781,0.0894,0.0888,0.0925,0.0435,0.0512,0.0967,0.0967,0.0967,0.0966,0.0966,0.0966,-0.0993,-0.1116,-0.1242,-0.1415,-0.1551,-0.1633,-0.1653,-0.1607,-0.1505,-0.1203,-0.0904,-0.0714,-0.0079,0.0788,0.1403,0.1444,0.1563,0.1544,0.1559,0.1226,0.1156,0.1088,0.1175,0.1761,0.1761,0.2098,0.2101,0.2104]}],[{"header":{"parameterUnit":"m.s-1","parameterCategory":2,"la1":30.2991,"la2":30.254,"lo1":-89.0895,"lo2":-89.0444,"dy":0.0017,"dx":0.0017,"nx":28,"ny":28,"refTime":"2025-07-21T21:00:00:Z","depth":"2","parameterNumber":2,"parameterNumberName":"U-component_of_CURRENTS"},"data":[0,0,0,0,0,0,0,0,0,0,0,0,0,0,0,0,0,0,0,0,0,0,0,0,0,0,0,0,0,0,0,0,0,0,0,0,0,0,0,0,0,0,0,0,0,0,0,0,0,0,0,0,0,0,0,0,0,0,-0.2265,-0.2267,0,-0.2455,-0.2456,-0.2458,-0.2539,-0.2539,-0.254,-0.254,-0.2857,-0.2865,-0.2873,0,0,0,0,0,0,0,0,0,0,0,0,0,-0.2101,-0.2102,-0.2264,-0.2268,-0.2271,-0.2454,-0.2456,-0.2458,-0.2539,-0.2539,-0.254,-0.254,-0.2854,-0.2864,-0.2874,0,0,0,0,0,0,0,0,0,0,0,0,0,-0.2211,-0.2102,-0.2264,-0.234,-0.2349,-0.2454,-0.2456,-0.2458,-0.2539,-0.2539,-0.254,-0.2541,-0.2851,-0.2863,-0.2875,-0.2935,0,0,-0.2912,-0.2917,0,0,0,0,0,0,0,0,-0.2204,-0.2216,-0.2325,-0.2335,-0.2345,-0.2481,-0.2515,-0.2627,-0.2539,-0.2458,-0.254,-0.2541,-0.2748,-0.2769,-0.2789,-0.295,-0.2964,-0.2913,-0.292,-0.2925,-0.2928,0,0,0,0,0,0,0,-0.2196,-0.2209,-0.2331,-0.2329,-0.2341,-0.2409,-0.2423,-0.2536,-0.2592,-0.2465,-0.2473,-0.2508,-0.2754,-0.2777,-0.2798,-0.2968,-0.2912,-0.2923,-0.293,-0.2935,-0.3148,-0.3147,0,0,0,0,0,0,-0.2183,-0.2201,-0.2325,-0.2338,-0.2285,-0.2412,-0.2427,-0.243,-0.2589,-0.2615,-0.2507,-0.2511,-0.2756,-0.2783,-0.2809,-0.287,-0.2925,-0.2936,-0.2943,-0.315,-0.3148,-0.3146,0,0,0,0,0,0,-0.2178,-0.2191,-0.2318,-0.2283,-0.2305,-0.2414,-0.2416,-0.2434,-0.2493,-0.2621,-0.2648,-0.2554,-0.2758,-0.2792,-0.2947,-0.2884,-0.2942,-0.2953,-0.3151,-0.3149,-0.3147,-0.3005,0,0,0,0,0,0,-0.2172,-0.2187,-0.2184,-0.228,-0.2306,-0.2412,-0.2417,-0.2437,-0.2516,-0.2523,-0.2671,-0.2698,-0.2761,-0.2928,-0.2959,-0.2901,-0.2962,-0.3153,-0.315,-0.3148,-0.3012,-0.2998,-0.2987,0,0,0,0,0,-0.2164,-0.2175,-0.2182,-0.2198,-0.2297,-0.2415,-0.2435,-0.2509,-0.2517,-0.256,-0.2656,-0.2695,-0.2927,-0.2941,-0.2976,-0.2919,-0.3155,-0.3151,-0.3148,-0.3017,-0.3001,-0.2987,0,0,0,0,0,0,-0.2125,-0.2188,-0.2197,-0.2229,-0.2325,-0.2433,-0.2475,-0.2526,-0.2629,-0.2648,-0.2739,-0.2776,-0.2857,-0.2931,-0.2942,-0.2965,-0.3022,-0.3025,-0.291,-0.2896,-0.2884,-0.2862,-0.2972,0,0,0,0,0,-0.2106,-0.2114,-0.2212,-0.2243,-0.2281,-0.2376,-0.2431,-0.2501,-0.2607,-0.2651,-0.2743,-0.282,-0.2861,-0.2922,-0.2993,-0.3067,-0.3122,-0.3031,-0.3019,-0.3008,-0.301,-0.3034,-0.3024,-0.3135,-0.3135,-0.3135,0,0,-0.2106,-0.2139,-0.2149,-0.2233,-0.2296,-0.2341,-0.241,-0.2521,-0.2546,-0.2675,-0.2742,-0.2809,-0.2874,-0.2916,-0.2954,-0.2983,-0.3007,-0.3003,-0.2993,-0.3002,-0.303,-0.3019,-0.3009,-0.3132,-0.3133,-0.3133,0,0,-0.211,-0.213,-0.2137,-0.2196,-0.2309,-0.2363,-0.2398,-0.2525,-0.2566,-0.2682,-0.2705,-0.275,-0.2892,-0.2869,-0.2881,-0.2856,-0.2939,-0.2866,-0.2798,-0.282,-0.2811,-0.2804,-0.2868,-0.2868,-0.286,-0.2859,-0.2859,0,-0.2104,-0.2118,-0.2173,-0.2194,-0.2241,-0.2358,-0.24,-0.2444,-0.2607,-0.2643,-0.2701,-0.2792,-0.284,-0.2805,-0.2766,-0.2819,-0.2886,-0.2847,-0.2802,-0.2796,-0.2792,-0.286,-0.2861,-0.2852,-0.2853,-0.2854,-0.2854,0,-0.2113,-0.2122,-0.2143,-0.2167,-0.2225,-0.2306,-0.2373,-0.2439,-0.2514,-0.2568,-0.2624,-0.2686,-0.2737,-0.2708,-0.2739,-0.2682,-0.276,-0.2781,-0.2837,-0.2772,-0.2848,-0.2852,-0.2842,-0.2844,-0.2847,-0.2848,0,0,-0.2098,-0.2137,-0.214,-0.215,-0.2231,-0.2291,-0.231,-0.2386,-0.2419,-0.2513,-0.2553,-0.2533,-0.2586,-0.2598,-0.2605,-0.2601,-0.2593,-0.2677,-0.2681,-0.2736,-0.27,-0.2488,-0.2474,-0.2628,-0.2627,-0.2627,-0.2771,0,-0.2095,-0.2116,-0.2137,-0.2164,-0.219,-0.2263,-0.2272,-0.2345,-0.2431,-0.2499,-0.2508,-0.2561,-0.2529,-0.2571,-0.254,-0.2621,-0.26,-0.2556,-0.2761,-0.2767,-0.2581,-0.2467,-0.2218,-0.23,-0.2775,-0.2776,-0.2777,0,-0.2086,-0.2106,-0.2129,-0.217,-0.219,-0.2206,-0.2282,-0.2314,-0.2388,-0.2466,-0.2495,-0.2562,-0.2544,-0.2546,-0.2588,-0.2586,-0.261,-0.265,-0.2658,-0.2511,-0.2559,-0.2442,-0.2291,-0.2785,-0.2784,-0.2784,-0.2783,0,-0.2061,-0.2094,-0.2113,-0.2127,-0.2186,-0.2203,-0.2234,-0.2308,-0.2362,-0.2444,-0.2554,-0.2547,-0.2607,-0.2623,-0.2652,-0.2668,-0.2727,-0.277,-0.2588,-0.2579,-0.2425,-0.2398,-0.2752,-0.2752,-0.2752,-0.2751,-0.2751,0,-0.2045,-0.2056,-0.2099,-0.211,-0.2141,-0.218,-0.2229,-0.2276,-0.2371,-0.2435,-0.2522,-0.2571,-0.2636,-0.2682,-0.2687,-0.2626,-0.2745,-0.2546,-0.2567,-0.2366,-0.2334,-0.2807,-0.2812,-0.2757,-0.2755,-0.2754,-0.2753,0,-0.2004,-0.2034,-0.2053,-0.2109,-0.2125,-0.2138,-0.2219,-0.2261,-0.2376,-0.2475,-0.2518,-0.2632,-0.267,-0.2709,-0.2751,-0.2662,-0.264,-0.2571,-0.2332,-0.2313,-0.2498,-0.2494,-0.2445,-0.2438,-0.2432,-0.2427,-0.2423,0,-0.1984,-0.1988,-0.2038,-0.2044,-0.2062,-0.2097,-0.2129,-0.2232,-0.2296,-0.2473,-0.2521,-0.2611,-0.2592,-0.2576,-0.2425,-0.2369,-0.2499,-0.2106,-0.201,-0.2423,-0.2452,-0.2457,-0.2461,-0.1807,-0.1799,-0.1791,-0.1786,0,-0.1937,-0.1951,-0.1969,-0.1987,-0.2008,-0.2037,-0.2096,-0.2157,-0.2286,-0.2388,-0.2459,-0.2457,-0.2392,-0.2145,-0.2017,-0.1945,-0.2093,-0.1948,-0.2456,-0.1867,-0.1815,-0.1846,-0.1873,-0.1721,-0.1727,-0.1732,-0.1735,-0.1738,-0.1891,-0.1883,-0.1898,-0.1903,-0.193,-0.1943,-0.1927,-0.2027,-0.2088,-0.2175,-0.2246,-0.2139,-0.2082,-0.1703,-0.1585,-0.1454,-0.1622,-0.1555,-0.1582,-0.1615,-0.1457,-0.139,-0.1194,-0.1197,-0.12,-0.1203,-0.1205,0,-0.1816,-0.1805,-0.1807,-0.1796,-0.1777,-0.1826,-0.1874,-0.1828,-0.1839,-0.1901,-0.1899,-0.1606,-0.137,-0.132,-0.0975,-0.0897,-0.0942,-0.0884,-0.0957,-0.1017,-0.1072,-0.0892,-0.0477,-0.0476,-0.0475,-0.0474,0,0,-0.1768,-0.1733,-0.1726,-0.1641,-0.1628,-0.1545,-0.1536,-0.1495,-0.1483,-0.1412,-0.1311,-0.1358,-0.127,-0.0924,-0.0813,-0.059,-0.0828,-0.0542,-0.111,-0.1258,-0.1313,-0.1415,-0.1197,0,0,0,0,0]},{"header":{"parameterUnit":"m.s-1","parameterCategory":2,"la1":30.2991,"la2":30.254,"lo1":-89.0895,"lo2":-89.0444,"dy":0.0017,"dx":0.0017,"nx":28,"ny":28,"refTime":"2025-07-21T21:00:00:Z","depth":"2","parameterNumber":3,"parameterNumberName":"V-component_of_CURRENTS"},"data":[0,0,0,0,0,0,0,0,0,0,0,0,0,0,0,0,0,0,0,0,0,0,0,0,0,0,0,0,0,0,0,0,0,0,0,0,0,0,0,0,0,0,0,0,0,0,0,0,0,0,0,0,0,0,0,0,0,0,0.0014,0.0015,0,0.0125,0.0127,0.0128,0.0238,0.0239,0.0241,0.0242,0.0624,0.0633,0.0642,0,0,0,0,0,0,0,0,0,0,0,0,0,-0.0049,-0.0049,0.0014,0.0015,0.0017,0.0125,0.0127,0.0129,0.0238,0.0239,0.0241,0.0242,0.0621,0.0632,0.0643,0,0,0,0,0,0,0,0,0,0,0,0,0,0.0014,-0.0048,0.0014,0.0082,0.0089,0.0125,0.0127,0.0129,0.0238,0.0239,0.0241,0.0243,0.0617,0.0631,0.0644,0.0693,0,0,0.0686,0.0692,0,0,0,0,0,0,0,0,0.0011,0.0017,0.0071,0.0077,0.0085,0.0167,0.0244,0.033,0.0237,0.0184,0.0242,0.0244,0.0493,0.0517,0.0534,0.0711,0.0727,0.0687,0.0695,0.0701,0.0705,0,0,0,0,0,0,0,0.0006,0.0013,0.0061,0.0072,0.008,0.0125,0.0136,0.026,0.0335,0.0189,0.0197,0.0203,0.05,0.0521,0.0545,0.0733,0.0687,0.0699,0.0707,0.0712,0.1022,0.1022,0,0,0,0,0,0,-0.0019,0.0008,0.0058,0.0064,0.0048,0.0124,0.0136,0.0141,0.0328,0.0355,0.0202,0.0208,0.0496,0.0529,0.0559,0.0636,0.0701,0.0714,0.0722,0.1022,0.1022,0.1022,0,0,0,0,0,0,-0.0021,-0.0016,0.0053,0.0037,0.0048,0.0123,0.0128,0.0143,0.0179,0.0334,0.0367,0.0224,0.0499,0.054,0.0681,0.0652,0.072,0.0732,0.1022,0.1022,0.1022,0.0786,0,0,0,0,0,0,-0.0023,-0.0017,-0.0021,0.0035,0.0048,0.0083,0.0126,0.0143,0.0178,0.0188,0.0365,0.04,0.0504,0.066,0.0694,0.0672,0.0743,0.1022,0.1022,0.1022,0.0794,0.0778,0.0765,0,0,0,0,0,-0.0026,-0.0035,-0.0022,-0.0016,0.004,0.0082,0.0094,0.0155,0.0177,0.0194,0.0311,0.0396,0.0684,0.0671,0.0712,0.0692,0.1022,0.1022,0.1022,0.0801,0.0781,0.0765,0,0,0,0,0,0,-0.0058,-0.0023,-0.0008,-0.0005,0.0036,0.01,0.0112,0.015,0.0247,0.0267,0.041,0.0455,0.0558,0.0672,0.0653,0.0785,0.0862,0.087,0.068,0.0664,0.0649,0.0615,0.0754,0,0,0,0,0,-0.0074,-0.0073,-0.0027,-0.0024,-0.0012,0.0046,0.0069,0.0113,0.0199,0.0241,0.0358,0.0487,0.0585,0.0662,0.0777,0.0865,0.0943,0.0879,0.0864,0.0851,0.0853,0.0936,0.0927,0.1022,0.1022,0.1022,0,0,-0.0086,-0.0068,-0.0066,-0.0032,-0.0001,0.0008,0.0067,0.01,0.0114,0.0273,0.0344,0.0448,0.0599,0.0678,0.0735,0.0775,0.0858,0.0851,0.0837,0.0848,0.0935,0.0925,0.0916,0.1022,0.1022,0.1022,0,0,-0.0111,-0.0097,-0.0104,-0.0083,-0.0044,-0.0013,-0.0007,0.0061,0.0099,0.0186,0.0273,0.035,0.0547,0.0602,0.0665,0.0649,0.0773,0.0701,0.0607,0.0684,0.0676,0.067,0.0709,0.0708,0.0698,0.0697,0.0697,0,-0.013,-0.013,-0.0097,-0.0101,-0.0092,-0.0031,-0.0033,0.0001,0.011,0.0143,0.0198,0.0396,0.0496,0.0556,0.0532,0.0608,0.0681,0.0646,0.0659,0.0655,0.0653,0.0696,0.0698,0.0686,0.0687,0.0688,0.0689,0,-0.0156,-0.016,-0.0164,-0.0158,-0.0144,-0.0132,-0.0093,-0.0061,-0.0005,0.0047,0.0137,0.0255,0.0373,0.0393,0.046,0.0481,0.0543,0.0616,0.0684,0.0628,0.0677,0.0684,0.067,0.0674,0.0677,0.068,0,0,-0.0206,-0.0185,-0.0189,-0.0195,-0.0171,-0.016,-0.0157,-0.0121,-0.0111,-0.0013,0.0025,0.012,0.0181,0.0254,0.0327,0.0377,0.0371,0.0479,0.0488,0.0481,0.0532,0.0533,0.0541,0.0461,0.0462,0.0463,0.0554,0,-0.0239,-0.0246,-0.0232,-0.0255,-0.0263,-0.0228,-0.0231,-0.0193,-0.0134,-0.0081,0.0006,0.0085,0.0128,0.0178,0.0219,0.0381,0.0389,0.0339,0.0622,0.063,0.0608,0.0549,0.0569,0.0651,0.0561,0.0562,0.0563,0,-0.0283,-0.028,-0.0291,-0.03,-0.0302,-0.0309,-0.0299,-0.0289,-0.0224,-0.0172,-0.0103,-0.0004,0.0068,0.0117,0.0298,0.0282,0.0362,0.046,0.0468,0.0563,0.0644,0.0709,0.0668,0.0576,0.0575,0.0574,0.0573,0,-0.0326,-0.0335,-0.0339,-0.0341,-0.0336,-0.0343,-0.0342,-0.0306,-0.0299,-0.0225,-0.0169,-0.0066,0.0025,0.0156,0.0312,0.0337,0.0514,0.0587,0.0636,0.0637,0.0758,0.0768,0.0653,0.0653,0.0653,0.0653,0.0652,0,-0.037,-0.0392,-0.0359,-0.0365,-0.04,-0.038,-0.0401,-0.0389,-0.0351,-0.0329,-0.0218,-0.0162,0.0049,0.0176,0.0301,0.0482,0.0502,0.0604,0.0662,0.0673,0.0673,0.0714,0.072,0.0656,0.0655,0.0655,0.0654,0,-0.0428,-0.04,-0.0422,-0.0409,-0.0421,-0.0444,-0.0461,-0.0469,-0.0411,-0.0373,-0.0343,-0.0201,-0.005,0.011,0.0328,0.0481,0.0642,0.0666,0.0632,0.0683,0.0717,0.0711,0.0793,0.0793,0.0794,0.0795,0.0795,0,-0.0457,-0.0464,-0.0457,-0.0488,-0.0491,-0.0517,-0.0542,-0.0517,-0.051,-0.0397,-0.0371,-0.0238,-0.0149,0.0153,0.0408,0.0615,0.0559,0.076,0.0796,0.0684,0.0733,0.0725,0.0717,0.0854,0.0855,0.0856,0.0856,0,-0.0531,-0.0513,-0.0518,-0.0561,-0.0595,-0.0624,-0.0637,-0.0644,-0.0583,-0.0532,-0.0448,-0.0366,-0.0074,0.0197,0.0461,0.0586,0.0748,0.0782,0.0712,0.0799,0.0745,0.0792,0.0782,0.0863,0.0862,0.0862,0.0861,0.0861,-0.0587,-0.0609,-0.0605,-0.0662,-0.0696,-0.0722,-0.0758,-0.0734,-0.0728,-0.0653,-0.0547,-0.0328,-0.0032,0.0401,0.0533,0.0731,0.0779,0.0884,0.0881,0.0878,0.0852,0.0801,0.0922,0.0922,0.0922,0.0922,0.0921,0,-0.0653,-0.0682,-0.0726,-0.0766,-0.0821,-0.0816,-0.0827,-0.0832,-0.0827,-0.0677,-0.0611,-0.0223,0.0101,0.0357,0.074,0.0932,0.0915,0.0879,0.0861,0.0858,0.0855,0.0824,0.089,0.0889,0.0888,0.0887,0,0,-0.0691,-0.0751,-0.0768,-0.0879,-0.0922,-0.0971,-0.099,-0.0956,-0.0831,-0.0734,-0.0494,-0.0238,0.0234,0.0456,0.0628,0.0781,0.0737,0.0751,0.0784,0.0739,0.073,0.0895,0.085,0,0,0,0,0]}],[{"header":{"parameterUnit":"m.s-1","parameterCategory":2,"la1":30.2991,"la2":30.254,"lo1":-89.0895,"lo2":-89.0444,"dy":0.0017,"dx":0.0017,"nx":28,"ny":28,"refTime":"2025-07-21T21:00:00:Z","depth":"4","parameterNumber":2,"parameterNumberName":"U-component_of_CURRENTS"},"data":[0,0,0,0,0,0,0,0,0,0,0,0,0,0,0,0,0,0,0,0,0,0,0,0,0,0,0,0,0,0,0,0,0,0,0,0,0,0,0,0,0,0,0,0,0,0,0,0,0,0,0,0,0,0,0,0,0,0,-0.1608,-0.1609,0,-0.1648,-0.1648,-0.1649,-0.1671,-0.1672,-0.1672,-0.1672,-0.1722,-0.1723,-0.1724,0,0,0,0,0,0,0,0,0,0,0,0,0,-0.1555,-0.1555,-0.1608,-0.1609,-0.1609,-0.1648,-0.1648,-0.1649,-0.1671,-0.1672,-0.1672,-0.1672,-0.1721,-0.1723,-0.1724,0,0,0,0,0,0,0,0,0,0,0,0,0,-0.1583,-0.1556,-0.1608,-0.1626,-0.1628,-0.1648,-0.1648,-0.1649,-0.1671,-0.1672,-0.1672,-0.1672,-0.1721,-0.1723,-0.1724,-0.1729,0,0,-0.1729,-0.173,0,0,0,0,0,0,0,0,-0.1582,-0.1585,-0.1623,-0.1625,-0.1627,-0.1656,-0.1648,-0.1677,-0.1671,-0.1654,-0.1672,-0.1672,-0.1701,-0.1705,-0.171,-0.1731,-0.1734,-0.173,-0.1731,-0.1731,-0.1732,0,0,0,0,0,0,0,-0.158,-0.1584,-0.1623,-0.1624,-0.1626,-0.1634,-0.1638,-0.1653,-0.1675,-0.1655,-0.1657,-0.1664,-0.1702,-0.1708,-0.1711,-0.1734,-0.173,-0.1731,-0.1732,-0.1733,-0.1809,-0.181,0,0,0,0,0,0,-0.1577,-0.1582,-0.1621,-0.1624,-0.1606,-0.1634,-0.1639,-0.1646,-0.1674,-0.1679,-0.1663,-0.1665,-0.1705,-0.1709,-0.1713,-0.1779,-0.1731,-0.1733,-0.1734,-0.1808,-0.181,-0.1811,0,0,0,0,0,0,-0.1576,-0.158,-0.162,-0.1605,-0.161,-0.1635,-0.1642,-0.1646,-0.1673,-0.1681,-0.1685,-0.1688,-0.1705,-0.171,-0.1744,-0.1779,-0.1734,-0.1735,-0.1807,-0.1809,-0.181,-0.1873,0,0,0,0,0,0,-0.1574,-0.1579,-0.1596,-0.1605,-0.1611,-0.1644,-0.1642,-0.1647,-0.1675,-0.1678,-0.1703,-0.1707,-0.1706,-0.1742,-0.1746,-0.178,-0.1737,-0.1806,-0.1808,-0.181,-0.187,-0.1876,-0.1882,0,0,0,0,0,-0.1572,-0.1591,-0.1597,-0.1602,-0.1629,-0.1645,-0.165,-0.1667,-0.1677,-0.1691,-0.1709,-0.1707,-0.1756,-0.1744,-0.1749,-0.1784,-0.1805,-0.1807,-0.1809,-0.1867,-0.1875,-0.1882,0,0,0,0,0,0,-0.158,-0.1595,-0.1602,-0.1626,-0.1641,-0.165,-0.1672,-0.168,-0.1706,-0.1716,-0.1721,-0.1726,-0.1767,-0.1764,-0.175,-0.181,-0.178,-0.1783,-0.1822,-0.183,-0.1836,-0.1834,-0.1738,0,0,0,0,0,-0.1588,-0.1608,-0.1618,-0.1642,-0.165,-0.1665,-0.1679,-0.1689,-0.1707,-0.172,-0.1738,-0.1756,-0.1776,-0.1795,-0.1806,-0.1843,-0.1818,-0.1867,-0.1874,-0.1879,-0.188,-0.1871,-0.1877,-0.1818,-0.1818,-0.1818,0,0,-0.1601,-0.1612,-0.1626,-0.1646,-0.166,-0.1678,-0.1675,-0.1702,-0.1728,-0.1721,-0.1771,-0.178,-0.1789,-0.1828,-0.1846,-0.1834,-0.1881,-0.1882,-0.1887,-0.1884,-0.1874,-0.188,-0.1885,-0.182,-0.1819,-0.1819,0,0,-0.1622,-0.1643,-0.166,-0.1673,-0.1696,-0.1706,-0.1718,-0.1739,-0.1762,-0.1797,-0.1804,-0.1833,-0.1863,-0.188,-0.189,-0.1938,-0.1911,-0.1948,-0.1987,-0.1979,-0.1984,-0.1988,-0.1955,-0.1955,-0.1956,-0.1956,-0.1956,0,-0.1636,-0.1657,-0.167,-0.1685,-0.1704,-0.1721,-0.1743,-0.1768,-0.1801,-0.1822,-0.182,-0.1871,-0.1886,-0.1932,-0.1954,-0.1955,-0.1934,-0.196,-0.1987,-0.1991,-0.1993,-0.1959,-0.1959,-0.1959,-0.1959,-0.1959,-0.1958,0,-0.1656,-0.1684,-0.1697,-0.1723,-0.1746,-0.177,-0.1797,-0.1831,-0.1857,-0.1874,-0.1924,-0.1939,-0.1964,-0.1984,-0.1988,-0.2028,-0.2001,-0.1992,-0.1968,-0.2003,-0.1964,-0.1963,-0.1964,-0.1963,-0.1962,-0.1961,0,0,-0.1649,-0.1701,-0.1708,-0.1729,-0.1769,-0.1786,-0.1839,-0.1881,-0.1914,-0.1947,-0.1982,-0.2031,-0.2035,-0.2046,-0.2059,-0.2068,-0.2076,-0.2049,-0.2047,-0.2015,-0.2041,-0.1897,-0.1881,-0.2075,-0.2075,-0.2075,-0.2003,0,-0.166,-0.1701,-0.1727,-0.1775,-0.1795,-0.1834,-0.1879,-0.1922,-0.1956,-0.1993,-0.2019,-0.205,-0.206,-0.2075,-0.209,-0.2077,-0.2077,-0.2095,-0.2012,-0.2009,-0.1876,-0.1876,-0.2077,-0.2002,-0.2001,-0.2001,-0.2001,0,-0.1653,-0.1688,-0.1738,-0.1799,-0.1813,-0.1849,-0.1917,-0.1956,-0.2012,-0.2036,-0.207,-0.2079,-0.2111,-0.2103,-0.2096,-0.2107,-0.2083,-0.2067,-0.2063,-0.1904,-0.1861,-0.1961,-0.1997,-0.1998,-0.1998,-0.1998,-0.1998,0,-0.1621,-0.1686,-0.1734,-0.1754,-0.1828,-0.1867,-0.1907,-0.1971,-0.1997,-0.2056,-0.2057,-0.2103,-0.2093,-0.2095,-0.207,-0.2083,-0.2036,-0.204,-0.1884,-0.1873,-0.2,-0.1996,-0.2026,-0.2026,-0.2026,-0.2026,-0.2026,0,-0.1597,-0.1634,-0.1728,-0.175,-0.1805,-0.1858,-0.1914,-0.1959,-0.2007,-0.2001,-0.2068,-0.2042,-0.2089,-0.2066,-0.2063,-0.1951,-0.2022,-0.1877,-0.1843,-0.2026,-0.2027,-0.1997,-0.1995,-0.2023,-0.2024,-0.2025,-0.2025,0,-0.1539,-0.1605,-0.166,-0.1757,-0.1788,-0.1823,-0.1898,-0.1917,-0.1974,-0.1959,-0.1966,-0.1987,-0.1933,-0.1963,-0.194,-0.1892,-0.1839,-0.1788,-0.1965,-0.1945,-0.1683,-0.1686,-0.1589,-0.1583,-0.1578,-0.1574,-0.1571,0,-0.1511,-0.1535,-0.1651,-0.1679,-0.1725,-0.1788,-0.1814,-0.1892,-0.1882,-0.1886,-0.184,-0.182,-0.1815,-0.1661,-0.1726,-0.1692,-0.1685,-0.1652,-0.1687,-0.1661,-0.1638,-0.1648,-0.1656,-0.1563,-0.1562,-0.1561,-0.1559,0,-0.1448,-0.1505,-0.1549,-0.1611,-0.1653,-0.1687,-0.1715,-0.1695,-0.1729,-0.1794,-0.1654,-0.1611,-0.1538,-0.1527,-0.1513,-0.15,-0.1676,-0.1601,-0.1612,-0.1644,-0.1628,-0.1613,-0.1627,-0.1542,-0.1545,-0.1546,-0.1547,0,-0.1402,-0.1412,-0.1476,-0.1509,-0.1564,-0.1543,-0.1585,-0.1534,-0.1533,-0.1522,-0.1466,-0.1451,-0.1483,-0.1422,-0.1411,-0.1385,-0.1368,-0.1345,-0.1368,-0.1388,-0.1362,-0.1315,-0.1086,0,0,0,0,0,-0.1344,-0.1332,-0.136,-0.1385,-0.1433,-0.1455,-0.1487,-0.1518,-0.154,-0.139,-0.1419,-0.134,-0.127,-0.1285,-0.1216,-0.1349,-0.1405,-0.1267,-0.1399,-0.1449,-0.1468,-0.146,0,0,0,0,0,0,-0.1298,-0.1325,-0.1319,-0.1268,-0.1257,-0.128,-0.1295,-0.1314,-0.1235,-0.1264,-0.1234,-0.1261,-0.1231,-0.1282,-0.1187,-0.1194,-0.125,-0.1281,-0.1278,-0.1437,-0.1455,-0.1471,-0.1469,0,0,0,0,0]},{"header":{"parameterUnit":"m.s-1","parameterCategory":2,"la1":30.2991,"la2":30.254,"lo1":-89.0895,"lo2":-89.0444,"dy":0.0017,"dx":0.0017,"nx":28,"ny":28,"refTime":"2025-07-21T21:00:00:Z","depth":"4","parameterNumber":3,"parameterNumberName":"V-component_of_CURRENTS"},"data":[0,0,0,0,0,0,0,0,0,0,0,0,0,0,0,0,0,0,0,0,0,0,0,0,0,0,0,0,0,0,0,0,0,0,0,0,0,0,0,0,0,0,0,0,0,0,0,0,0,0,0,0,0,0,0,0,0,0,-0.0018,-0.0018,0,0.0015,0.0015,0.0016,0.0057,0.0057,0.0058,0.0058,0.0119,0.012,0.0121,0,0,0,0,0,0,0,0,0,0,0,0,0,-0.004,-0.004,-0.0018,-0.0018,-0.0017,0.0015,0.0015,0.0016,0.0056,0.0057,0.0058,0.0058,0.0119,0.012,0.0122,0,0,0,0,0,0,0,0,0,0,0,0,0,-0.0021,-0.004,-0.0018,0.0006,0.0009,0.0015,0.0015,0.0016,0.0056,0.0057,0.0058,0.0059,0.0118,0.012,0.0122,0.0115,0,0,0.0127,0.0127,0,0,0,0,0,0,0,0,-0.0022,-0.002,0.0002,0.0004,0.0007,0.0032,0.003,0.005,0.0056,0.0039,0.0058,0.0059,0.0091,0.0095,0.01,0.0118,0.012,0.0127,0.0128,0.0129,0.0129,0,0,0,0,0,0,0,-0.0023,-0.0021,-0.0004,0.0002,0.0005,0.0017,0.0021,0.0034,0.0061,0.0041,0.0044,0.0045,0.0093,0.0099,0.0102,0.0121,0.0127,0.0128,0.0129,0.013,0.0132,0.0131,0,0,0,0,0,0,-0.003,-0.0022,-0.0005,-0.0003,-0.0007,0.0016,0.0021,0.0024,0.0061,0.0067,0.0045,0.0047,0.0096,0.01,0.0105,0.0114,0.0129,0.013,0.0131,0.0133,0.0132,0.0131,0,0,0,0,0,0,-0.0031,-0.0029,-0.0006,-0.0013,-0.0009,0.0016,0.0019,0.0024,0.0031,0.0063,0.007,0.0046,0.0096,0.0102,0.0112,0.0116,0.0131,0.0132,0.0134,0.0133,0.0131,0.0123,0,0,0,0,0,0,-0.0032,-0.003,-0.0033,-0.0013,-0.0009,-0.0008,0.0018,0.0024,0.003,0.0034,0.0067,0.0073,0.0097,0.0109,0.0114,0.0119,0.0134,0.0135,0.0133,0.0132,0.0124,0.0121,0.0119,0,0,0,0,0,-0.0033,-0.0042,-0.0034,-0.0032,-0.0014,-0.0008,-0.0006,0.0016,0.0029,0.0027,0.0049,0.0073,0.0101,0.011,0.0115,0.0121,0.0136,0.0134,0.0132,0.0126,0.0122,0.0119,0,0,0,0,0,0,-0.0054,-0.0038,-0.0028,-0.0032,-0.0023,-0.0002,-0.0004,0.001,0.0025,0.003,0.0063,0.007,0.0079,0.0092,0.01,0.0112,0.0121,0.012,0.0115,0.0111,0.0109,0.0118,0.0135,0,0,0,0,0,-0.0061,-0.0063,-0.0046,-0.005,-0.0047,-0.0027,-0.0023,-0.0009,0.0007,0.0015,0.0037,0.0056,0.0072,0.0086,0.0096,0.0105,0.0154,0.0109,0.0106,0.0104,0.0112,0.0188,0.0195,0.0124,0.0124,0.0124,0,0,-0.0071,-0.0063,-0.0064,-0.0055,-0.0045,-0.0049,-0.0022,-0.002,-0.0018,0.0018,0.0025,0.0045,0.0068,0.008,0.0085,0.0095,0.0148,0.0101,0.0099,0.0109,0.0187,0.0195,0.0201,0.0123,0.0123,0.0123,0,0,-0.0093,-0.0084,-0.0092,-0.0089,-0.008,-0.0068,-0.007,-0.0053,-0.0039,-0.0036,-0.0006,0.0022,0.003,0.0068,0.0083,0.0069,0.0125,0.0058,0.0065,0.0139,0.0147,0.0154,0.0229,0.0243,0.0065,0.0065,0.0065,0,-0.0107,-0.011,-0.0095,-0.0104,-0.0104,-0.008,-0.0091,-0.0077,-0.0058,-0.0044,-0.004,0.0006,0.0031,0.0072,0.0068,0.0068,0.0115,0.0081,0.014,0.0148,0.0156,0.0231,0.0247,0.0064,0.0064,0.0064,0.0065,0,-0.0132,-0.0137,-0.0143,-0.0144,-0.0144,-0.015,-0.0132,-0.0126,-0.0111,-0.0088,-0.0054,-0.0013,0.002,0.0031,0.0048,0.0108,0.0125,0.0126,0.0158,0.0163,0.0241,0.0258,0.0063,0.0064,0.0064,0.0064,0,0,-0.0164,-0.016,-0.0163,-0.017,-0.0165,-0.0169,-0.0167,-0.015,-0.0143,-0.0107,-0.0082,-0.0033,0.0001,0.0021,0.0057,0.0129,0.0228,0.0149,0.0153,0.024,0.0397,0.0342,0.0356,0.0242,0.0244,0.0246,0.0433,0,-0.0189,-0.0204,-0.0198,-0.0221,-0.023,-0.0213,-0.0215,-0.0195,-0.0173,-0.0146,-0.0071,-0.0044,-0.0007,0.0011,0.0091,0.0184,0.027,0.0178,0.0364,0.037,0.0335,0.0372,0.0254,0.0445,0.0449,0.0452,0.0454,0,-0.0219,-0.0224,-0.0241,-0.0253,-0.0257,-0.0269,-0.0264,-0.0262,-0.0213,-0.0192,-0.0132,-0.0086,0.0022,0.0042,0.0246,0.0184,0.029,0.0375,0.0384,0.0349,0.0346,0.0436,0.0485,0.0483,0.048,0.0478,0.0476,0,-0.0241,-0.026,-0.0271,-0.0276,-0.0283,-0.0291,-0.0296,-0.0271,-0.0275,-0.0215,-0.0207,-0.008,-0.0025,0.0135,0.0298,0.0278,0.0527,0.0519,0.0583,0.0581,0.0581,0.0572,0.0678,0.0678,0.0678,0.0677,0.0677,0,-0.0266,-0.0286,-0.0285,-0.0293,-0.0327,-0.0319,-0.0343,-0.0334,-0.0314,-0.0314,-0.0231,-0.0194,-0.0001,0.0148,0.0309,0.0498,0.0543,0.0601,0.0629,0.057,0.0557,0.0594,0.0582,0.0684,0.0683,0.0681,0.068,0,-0.0293,-0.0287,-0.0315,-0.0325,-0.0338,-0.0362,-0.0396,-0.0412,-0.0387,-0.0384,-0.0368,-0.0258,-0.006,0.0146,0.0411,0.0491,0.069,0.0748,0.0685,0.0703,0.0697,0.0682,0.084,0.0839,0.0839,0.0839,0.0839,0,-0.0308,-0.0317,-0.0342,-0.0376,-0.0388,-0.0423,-0.0454,-0.0449,-0.0462,-0.042,-0.0414,-0.0252,-0.0149,0.0205,0.0405,0.0719,0.0742,0.082,0.075,0.0705,0.0717,0.0702,0.0687,0.0838,0.0838,0.0838,0.0838,0,-0.0347,-0.035,-0.0368,-0.0425,-0.0469,-0.0512,-0.0546,-0.0558,-0.0545,-0.0527,-0.043,-0.0276,-0.0061,0.0198,0.0435,0.0651,0.0751,0.0818,0.0819,0.0754,0.0705,0.0713,0.07,0.0837,0.0837,0.0837,0.0837,0,-0.0385,-0.0409,-0.0431,-0.049,-0.0545,-0.0585,-0.059,-0.0581,-0.0577,-0.0516,-0.0477,-0.0253,-0.0119,0.0165,0.039,0.0589,0.0618,0.063,0.0642,0.0645,0.0508,0.0413,0.0496,0,0,0,0,0,-0.0424,-0.0459,-0.0506,-0.056,-0.0609,-0.0642,-0.0655,-0.0645,-0.062,-0.0556,-0.0514,-0.0305,-0.001,0.0125,0.0324,0.037,0.064,0.0596,0.0657,0.0832,0.0833,0.0697,0,0,0,0,0,0,-0.0453,-0.0501,-0.0514,-0.0606,-0.066,-0.0711,-0.0718,-0.0695,-0.0635,-0.0582,-0.0389,-0.0324,0.001,-0.0112,0.0308,0.0363,0.0408,0.0748,0.0749,0.0831,0.0832,0.0833,0.0694,0,0,0,0,0]}]]